Data No, UTC Date,UTC Time,Latitude,Longitude,Course(deg),Temp(degC),Sal(psu),,,,,
515,2018/11/23,8:34,42-36.98N,141-37.13E,206,12.376,33.1515,,,,,0
516,2018/11/23,8:35,42-36.74N,141-36.97E,204,12.55,33.1809,,,,,
517,2018/11/23,8:36,42-36.48N,141-36.93E,180,12.962,33.2194,,,,,
518,2018/11/23,8:37,42-36.20N,141-36.94E,176,13.053,33.3501,,,,,
519,2018/11/23,8:38,42-35.93N,141-36.97E,175,13.742,33.3849,,,,,
520,2018/11/23,8:39,42-35.64N,141-37.00E,175,14.019,33.5519,,,,,
521,2018/11/23,8:40,42-35.36N,141-37.03E,175,14.143,33.6649,,,,,
522,2018/11/23,8:41,42-35.07N,141-37.06E,175,14.233,33.7185,,,,,
523,2018/11/23,8:42,42-34.79N,141-37.08E,176,14.351,33.7415,,,,,
524,2018/11/23,8:43,42-34.50N,141-37.11E,176,14.385,33.7615,,,,,
525,2018/11/23,8:44,42-34.22N,141-37.13E,176,14.414,33.7746,,,,,
526,2018/11/23,8:45,42-33.93N,141-37.16E,176,14.517,33.787,,,,,
527,2018/11/23,8:46,42-33.65N,141-37.19E,175,14.563,33.805,,,,,
528,2018/11/23,8:47,42-33.37N,141-37.22E,175,14.627,33.8164,,,,,
529,2018/11/23,8:48,42-33.08N,141-37.24E,176,14.718,33.8243,,,,,
530,2018/11/23,8:49,42-32.79N,141-37.26E,177,14.75,33.8277,,,,,
531,2018/11/23,8:50,42-32.50N,141-37.28E,177,14.785,33.8262,,,,,
532,2018/11/23,8:51,42-32.22N,141-37.30E,177,14.777,33.8266,,,,,
533,2018/11/23,8:52,42-31.92N,141-37.32E,177,14.811,33.8253,,,,,
534,2018/11/23,8:53,42-31.64N,141-37.33E,177,14.822,33.826,,,,,
535,2018/11/23,8:54,42-31.34N,141-37.35E,178,14.79,33.8266,,,,,
536,2018/11/23,8:55,42-31.06N,141-37.36E,178,14.76,33.8262,,,,,
537,2018/11/23,8:56,42-30.76N,141-37.37E,178,14.723,33.827,,,,,
538,2018/11/23,8:57,42-30.47N,141-37.37E,178,14.702,33.8294,,,,,
539,2018/11/23,8:58,42-30.18N,141-37.38E,178,14.676,33.8321,,,,,
540,2018/11/23,8:59,42-29.88N,141-37.39E,178,14.633,33.8322,,,,,
541,2018/11/23,9:00,42-29.59N,141-37.39E,179,14.588,33.8328,,,,,
542,2018/11/23,9:01,42-29.30N,141-37.40E,179,14.57,33.8333,,,,,
543,2018/11/23,9:02,42-29.01N,141-37.40E,179,14.554,33.8345,,,,,
544,2018/11/23,9:03,42-28.72N,141-37.41E,179,14.531,33.8362,,,,,
545,2018/11/23,9:04,42-28.42N,141-37.41E,180,14.524,33.8336,,,,,
546,2018/11/23,9:05,42-28.13N,141-37.41E,180,14.505,33.8268,,,,,
547,2018/11/23,9:06,42-27.84N,141-37.41E,180,14.445,33.8217,,,,,
548,2018/11/23,9:07,42-27.56N,141-37.41E,179,14.359,33.8178,,,,,
549,2018/11/23,9:08,42-27.26N,141-37.41E,180,14.3,33.8115,,,,,
550,2018/11/23,9:09,42-26.98N,141-37.40E,180,14.223,33.8048,,,,,
551,2018/11/23,9:10,42-26.69N,141-37.39E,181,14.134,33.7998,,,,,
552,2018/11/23,9:11,42-26.40N,141-37.39E,180,14.088,33.793,,,,,
553,2018/11/23,9:12,42-26.11N,141-37.38E,180,14.019,33.7894,,,,,
554,2018/11/23,9:13,42-25.82N,141-37.37E,180,14.009,33.7862,,,,,
555,2018/11/23,9:14,42-25.54N,141-37.38E,179,13.98,33.785,,,,,
556,2018/11/23,9:15,42-25.25N,141-37.38E,179,14.072,33.7867,,,,,
557,2018/11/23,9:16,42-24.96N,141-37.38E,179,14.3,33.8027,,,,,
558,2018/11/23,9:17,42-24.68N,141-37.37E,182,14.488,33.8217,,,,,
559,2018/11/23,9:18,42-24.40N,141-37.34E,186,14.609,33.8349,,,,,
560,2018/11/23,9:19,42-24.12N,141-37.30E,185,14.724,33.8384,,,,,
561,2018/11/23,9:20,42-23.84N,141-37.27E,184,14.843,33.8365,,,,,
562,2018/11/23,9:21,42-23.56N,141-37.24E,183,14.927,33.8306,,,,,
563,2018/11/23,9:22,42-23.28N,141-37.22E,182,15.04,33.8259,,,,,
564,2018/11/23,9:23,42-23.00N,141-37.21E,182,15.124,33.8244,,,,,
565,2018/11/23,9:24,42-22.72N,141-37.20E,180,15.239,33.8239,,,,,
566,2018/11/23,9:25,42-22.44N,141-37.20E,178,15.276,33.8243,,,,,
567,2018/11/23,9:26,42-22.16N,141-37.22E,177,15.263,33.8271,,,,,
568,2018/11/23,9:27,42-21.88N,141-37.23E,178,15.273,33.8252,,,,,
569,2018/11/23,9:28,42-21.61N,141-37.24E,178,15.274,33.8239,,,,,
570,2018/11/23,9:29,42-21.32N,141-37.25E,177,15.256,33.822,,,,,
571,2018/11/23,9:30,42-21.05N,141-37.26E,178,15.215,33.8208,,,,,
572,2018/11/23,9:31,42-20.76N,141-37.27E,177,15.155,33.8189,,,,,
573,2018/11/23,9:32,42-20.49N,141-37.28E,179,15.112,33.8182,,,,,
574,2018/11/23,9:33,42-20.21N,141-37.29E,178,15.102,33.8186,,,,,
575,2018/11/23,9:34,42-19.94N,141-37.30E,177,15.183,33.8184,,,,,
576,2018/11/23,9:35,42-19.65N,141-37.31E,178,15.221,33.817,,,,,
577,2018/11/23,9:36,42-19.38N,141-37.32E,178,15.247,33.8156,,,,,
578,2018/11/23,9:37,42-19.11N,141-37.33E,178,15.255,33.815,,,,,
579,2018/11/23,9:38,42-18.82N,141-37.34E,178,15.259,33.814,,,,,
580,2018/11/23,9:39,42-18.55N,141-37.35E,177,15.284,33.8137,,,,,
581,2018/11/23,9:40,42-18.27N,141-37.37E,178,15.295,33.8136,,,,,
582,2018/11/23,9:41,42-18.00N,141-37.37E,179,15.31,33.8132,,,,,
583,2018/11/23,9:42,42-17.72N,141-37.38E,178,15.311,33.8139,,,,,
584,2018/11/23,9:43,42-17.44N,141-37.39E,179,15.318,33.8134,,,,,
585,2018/11/23,9:44,42-17.17N,141-37.39E,178,15.317,33.8142,,,,,
586,2018/11/23,9:45,42-16.88N,141-37.41E,178,15.319,33.8147,,,,,
587,2018/11/23,9:46,42-16.61N,141-37.42E,177,15.306,33.8149,,,,,
588,2018/11/23,9:47,42-16.33N,141-37.43E,178,15.293,33.816,,,,,
589,2018/11/23,9:48,42-16.06N,141-37.44E,178,15.275,33.8169,,,,,
590,2018/11/23,9:49,42-15.78N,141-37.46E,177,15.252,33.8175,,,,,
591,2018/11/23,9:50,42-15.51N,141-37.47E,178,15.228,33.8178,,,,,
592,2018/11/23,9:51,42-15.23N,141-37.48E,178,15.197,33.817,,,,,
593,2018/11/23,9:52,42-14.96N,141-37.49E,179,15.157,33.8165,,,,,
594,2018/11/23,9:53,42-14.69N,141-37.50E,178,15.12,33.8155,,,,,
595,2018/11/23,9:54,42-14.41N,141-37.51E,178,15.061,33.8149,,,,,
596,2018/11/23,9:55,42-14.14N,141-37.52E,178,15.009,33.8153,,,,,
597,2018/11/23,9:56,42-13.86N,141-37.52E,179,14.926,33.8159,,,,,
598,2018/11/23,9:57,42-13.59N,141-37.53E,178,14.916,33.8167,,,,,
599,2018/11/23,9:58,42-13.31N,141-37.54E,178,14.912,33.8148,,,,,
600,2018/11/23,9:59,42-13.04N,141-37.55E,178,14.89,33.815,,,,,
601,2018/11/23,10:00,42-12.76N,141-37.55E,179,14.845,33.8145,,,,,
602,2018/11/23,10:01,42-12.48N,141-37.55E,180,14.798,33.8155,,,,,
603,2018/11/23,10:02,42-12.21N,141-37.55E,179,14.785,33.8173,,,,,
604,2018/11/23,10:03,42-11.93N,141-37.55E,179,14.785,33.8199,,,,,
605,2018/11/23,10:04,42-11.66N,141-37.56E,179,14.783,33.821,,,,,
606,2018/11/23,10:05,42-11.38N,141-37.56E,179,14.784,33.8224,,,,,
607,2018/11/23,10:06,42-11.12N,141-37.57E,178,14.789,33.8228,,,,,
608,2018/11/23,10:07,42-10.83N,141-37.57E,179,14.787,33.8243,,,,,
609,2018/11/23,10:08,42-10.56N,141-37.58E,179,14.795,33.826,,,,,
610,2018/11/23,10:09,42-10.28N,141-37.58E,178,14.81,33.8285,,,,,
611,2018/11/23,10:10,42-10.01N,141-37.59E,178,14.811,33.8301,,,,,
612,2018/11/23,10:11,42-09.74N,141-37.59E,180,14.815,33.834,,,,,
613,2018/11/23,10:12,42-09.46N,141-37.60E,179,14.816,33.8377,,,,,
614,2018/11/23,10:13,42-09.19N,141-37.60E,178,14.81,33.8408,,,,,
615,2018/11/23,10:14,42-08.91N,141-37.61E,179,14.808,33.8427,,,,,
616,2018/11/23,10:15,42-08.64N,141-37.61E,179,14.806,33.8444,,,,,
617,2018/11/23,10:16,42-08.36N,141-37.61E,179,14.79,33.8454,,,,,
618,2018/11/23,10:17,42-08.09N,141-37.62E,178,14.765,33.8449,,,,,
619,2018/11/23,10:18,42-07.81N,141-37.62E,178,14.741,33.8438,,,,,
620,2018/11/23,10:19,42-07.54N,141-37.63E,178,14.697,33.843,,,,,
621,2018/11/23,10:20,42-07.26N,141-37.64E,178,14.665,33.843,,,,,
622,2018/11/23,10:21,42-06.99N,141-37.65E,177,14.636,33.8433,,,,,
623,2018/11/23,10:22,42-06.72N,141-37.67E,178,14.607,33.8432,,,,,
624,2018/11/23,10:23,42-06.44N,141-37.68E,179,14.568,33.8442,,,,,
625,2018/11/23,10:24,42-06.17N,141-37.68E,179,14.522,33.844,,,,,
626,2018/11/23,10:25,42-05.89N,141-37.69E,178,14.443,33.8463,,,,,
627,2018/11/23,10:26,42-05.61N,141-37.70E,177,14.343,33.8486,,,,,
628,2018/11/23,10:27,42-05.33N,141-37.71E,179,14.302,33.8534,,,,,
629,2018/11/23,10:28,42-05.06N,141-37.72E,178,14.289,33.8621,,,,,
630,2018/11/23,10:29,42-04.78N,141-37.72E,179,14.28,33.8672,,,,,
631,2018/11/23,10:30,42-04.50N,141-37.72E,179,14.282,33.872,,,,,
632,2018/11/23,10:31,42-04.22N,141-37.73E,177,14.271,33.8733,,,,,
633,2018/11/23,10:32,42-03.95N,141-37.75E,177,14.269,33.8747,,,,,
634,2018/11/23,10:33,42-03.67N,141-37.77E,177,14.254,33.8751,,,,,
635,2018/11/23,10:34,42-03.39N,141-37.78E,178,14.227,33.8741,,,,,
636,2018/11/23,10:35,42-03.11N,141-37.80E,175,14.183,33.8739,,,,,
637,2018/11/23,10:36,42-02.83N,141-37.82E,176,14.153,33.8736,,,,,
638,2018/11/23,10:37,42-02.55N,141-37.85E,177,14.145,33.8747,,,,,
639,2018/11/23,10:38,42-02.28N,141-37.86E,177,14.169,33.8779,,,,,
640,2018/11/23,10:39,42-02.00N,141-37.88E,177,14.197,33.8806,,,,,
641,2018/11/23,10:40,42-01.71N,141-37.90E,176,14.204,33.8809,,,,,
642,2018/11/23,10:41,42-01.43N,141-37.92E,177,14.194,33.8813,,,,,
643,2018/11/23,10:42,42-01.14N,141-37.94E,177,14.163,33.8809,,,,,
644,2018/11/23,10:43,42-00.87N,141-37.96E,176,14.12,33.8794,,,,,
645,2018/11/23,10:44,42-00.58N,141-37.98E,176,14.076,33.8773,,,,,
646,2018/11/23,10:45,42-00.30N,141-38.00E,176,14.06,33.8767,,,,,
647,2018/11/23,10:46,42-00.02N,141-38.03E,177,14.022,33.8759,,,,,
648,2018/11/23,10:47,41-59.73N,141-38.04E,178,13.955,33.8771,,,,,
649,2018/11/23,10:48,41-59.45N,141-38.05E,177,13.905,33.8796,,,,,
650,2018/11/23,10:49,41-59.16N,141-38.07E,176,13.922,33.884,,,,,
651,2018/11/23,10:50,41-58.88N,141-38.09E,176,13.925,33.8924,,,,,
652,2018/11/23,10:51,41-58.59N,141-38.12E,176,13.897,33.894,,,,,
653,2018/11/23,10:52,41-58.31N,141-38.14E,177,13.85,33.8949,,,,,
654,2018/11/23,10:53,41-58.03N,141-38.16E,176,13.8,33.8942,,,,,
655,2018/11/23,10:54,41-57.75N,141-38.19E,175,13.761,33.8934,,,,,
656,2018/11/23,10:55,41-57.46N,141-38.22E,175,13.746,33.8939,,,,,
657,2018/11/23,10:56,41-57.18N,141-38.26E,173,13.686,33.8962,,,,,
658,2018/11/23,10:57,41-56.89N,141-38.30E,173,13.679,33.8985,,,,,
659,2018/11/23,10:58,41-56.60N,141-38.33E,175,13.724,33.899,,,,,
660,2018/11/23,10:59,41-56.31N,141-38.37E,175,13.783,33.8976,,,,,
661,2018/11/23,11:00,41-56.03N,141-38.40E,174,13.802,33.8946,,,,,
662,2018/11/23,11:01,41-55.74N,141-38.44E,174,13.836,33.8944,,,,,
663,2018/11/23,11:02,41-55.45N,141-38.47E,175,13.842,33.8914,,,,,
664,2018/11/23,11:03,41-55.17N,141-38.51E,174,13.855,33.8896,,,,,
665,2018/11/23,11:04,41-54.88N,141-38.54E,174,13.861,33.8898,,,,,
666,2018/11/23,11:05,41-54.59N,141-38.59E,172,13.845,33.8892,,,,,
667,2018/11/23,11:06,41-54.30N,141-38.64E,173,13.877,33.8899,,,,,
668,2018/11/23,11:07,41-54.02N,141-38.69E,173,13.921,33.8921,,,,,
669,2018/11/23,11:08,41-53.73N,141-38.73E,174,13.945,33.893,,,,,
670,2018/11/23,11:09,41-53.45N,141-38.77E,174,13.999,33.8897,,,,,
671,2018/11/23,11:10,41-53.16N,141-38.81E,174,14.036,33.8849,,,,,
672,2018/11/23,11:11,41-52.87N,141-38.85E,173,14.102,33.8849,,,,,
673,2018/11/23,11:12,41-52.58N,141-38.89E,173,14.145,33.8843,,,,,
674,2018/11/23,11:13,41-52.30N,141-38.93E,174,14.164,33.881,,,,,
675,2018/11/23,11:14,41-52.01N,141-38.97E,174,14.172,33.8713,,,,,
676,2018/11/23,11:15,41-51.72N,141-39.02E,173,14.144,33.8623,,,,,
677,2018/11/23,11:16,41-51.43N,141-39.05E,175,14.084,33.8572,,,,,
678,2018/11/23,11:17,41-51.15N,141-39.09E,173,14.049,33.8444,,,,,
679,2018/11/23,11:18,41-50.85N,141-39.13E,173,14.079,33.8277,,,,,
680,2018/11/23,11:19,41-50.57N,141-39.17E,175,14.102,33.8241,,,,,
681,2018/11/23,11:20,41-50.28N,141-39.20E,174,14.113,33.8259,,,,,
682,2018/11/23,11:21,41-50.00N,141-39.24E,175,14.114,33.8285,,,,,
683,2018/11/23,11:22,41-49.70N,141-39.28E,174,14.111,33.8293,,,,,
684,2018/11/23,11:23,41-49.42N,141-39.31E,174,14.112,33.83,,,,,
685,2018/11/23,11:24,41-49.13N,141-39.35E,174,14.11,33.8301,,,,,
686,2018/11/23,11:25,41-48.84N,141-39.39E,175,14.148,33.8295,,,,,
687,2018/11/23,11:26,41-48.56N,141-39.42E,174,14.181,33.8243,,,,,
688,2018/11/23,11:27,41-48.27N,141-39.45E,175,14.214,33.8233,,,,,
689,2018/11/23,11:28,41-47.98N,141-39.47E,176,14.243,33.8216,,,,,
690,2018/11/23,11:29,41-47.70N,141-39.50E,175,14.264,33.8203,,,,,
691,2018/11/23,11:30,41-47.41N,141-39.53E,175,14.301,33.8184,,,,,
692,2018/11/23,11:31,41-47.12N,141-39.56E,174,14.347,33.8182,,,,,
693,2018/11/23,11:32,41-46.84N,141-39.60E,174,14.357,33.8191,,,,,
694,2018/11/23,11:33,41-46.56N,141-39.63E,175,14.367,33.8191,,,,,
695,2018/11/23,11:34,41-46.27N,141-39.65E,176,14.35,33.8203,,,,,
696,2018/11/23,11:35,41-45.99N,141-39.67E,176,14.333,33.8212,,,,,
697,2018/11/23,11:36,41-45.70N,141-39.70E,176,14.307,33.8208,,,,,
698,2018/11/23,11:37,41-45.41N,141-39.72E,176,14.274,33.8206,,,,,
699,2018/11/23,11:38,41-45.12N,141-39.74E,177,14.236,33.8205,,,,,
700,2018/11/23,11:39,41-44.84N,141-39.76E,176,14.214,33.8206,,,,,
701,2018/11/23,11:40,41-44.55N,141-39.78E,176,14.199,33.8209,,,,,
702,2018/11/23,11:41,41-44.26N,141-39.81E,175,14.147,33.8211,,,,,
703,2018/11/23,11:42,41-43.97N,141-39.84E,175,14.103,33.8216,,,,,
704,2018/11/23,11:43,41-43.68N,141-39.87E,174,14.08,33.8235,,,,,
705,2018/11/23,11:44,41-43.39N,141-39.91E,174,14.066,33.8242,,,,,
706,2018/11/23,11:45,41-43.09N,141-39.94E,175,14.058,33.8254,,,,,
707,2018/11/23,11:46,41-42.81N,141-39.97E,176,14.07,33.8259,,,,,
708,2018/11/23,11:47,41-42.51N,141-39.99E,176,14.083,33.8264,,,,,
709,2018/11/23,11:48,41-42.22N,141-40.03E,173,14.088,33.827,,,,,
710,2018/11/23,11:49,41-41.93N,141-40.07E,173,14.258,33.8278,,,,,
711,2018/11/23,11:50,41-41.64N,141-40.11E,173,14.345,33.8321,,,,,
712,2018/11/23,11:51,41-41.34N,141-40.16E,173,14.492,33.8358,,,,,
713,2018/11/23,11:52,41-41.05N,141-40.21E,170,14.575,33.8362,,,,,
714,2018/11/23,11:53,41-40.76N,141-40.30E,166,14.629,33.8372,,,,,
715,2018/11/23,11:54,41-40.48N,141-40.43E,155,14.675,33.8376,,,,,
716,2018/11/23,11:55,41-40.22N,141-40.64E,147,14.699,33.8397,,,,,
717,2018/11/23,11:56,41-39.97N,141-40.86E,146,14.714,33.8406,,,,,
718,2018/11/23,11:57,41-39.73N,141-41.07E,146,14.708,33.8409,,,,,
719,2018/11/23,11:58,41-39.47N,141-41.30E,147,14.706,33.8409,,,,,
720,2018/11/23,11:59,41-39.21N,141-41.52E,147,14.696,33.8405,,,,,
721,2018/11/23,12:00,41-38.94N,141-41.74E,148,14.697,33.8407,,,,,
722,2018/11/23,12:01,41-38.68N,141-41.96E,146,14.688,33.8401,,,,,
723,2018/11/23,12:02,41-38.43N,141-42.19E,145,14.657,33.8406,,,,,
724,2018/11/23,12:03,41-38.17N,141-42.42E,146,14.599,33.8403,,,,,
725,2018/11/23,12:04,41-37.91N,141-42.65E,146,14.52,33.8404,,,,,
726,2018/11/23,12:05,41-37.66N,141-42.87E,146,14.446,33.8405,,,,,
727,2018/11/23,12:06,41-37.39N,141-43.06E,156,14.451,33.8419,,,,,
728,2018/11/23,12:07,41-37.10N,141-43.14E,173,14.477,33.8422,,,,,
729,2018/11/23,12:08,41-36.81N,141-43.17E,175,14.512,33.842,,,,,
730,2018/11/23,12:09,41-36.52N,141-43.19E,177,14.504,33.842,,,,,
731,2018/11/23,12:10,41-36.21N,141-43.20E,177,14.477,33.8432,,,,,
732,2018/11/23,12:11,41-35.92N,141-43.24E,173,14.467,33.844,,,,,
733,2018/11/23,12:12,41-35.61N,141-43.29E,173,14.558,33.8448,,,,,
734,2018/11/23,12:13,41-35.31N,141-43.32E,175,14.59,33.8415,,,,,
735,2018/11/23,12:14,41-35.00N,141-43.35E,175,14.602,33.8394,,,,,
736,2018/11/23,12:15,41-34.69N,141-43.38E,175,14.667,33.8398,,,,,
737,2018/11/23,12:16,41-34.37N,141-43.42E,175,14.709,33.8402,,,,,
738,2018/11/23,12:17,41-34.06N,141-43.45E,175,14.727,33.8406,,,,,
739,2018/11/23,12:18,41-33.75N,141-43.48E,175,14.739,33.8417,,,,,
740,2018/11/23,12:19,41-33.44N,141-43.52E,173,14.737,33.8419,,,,,
741,2018/11/23,12:20,41-33.12N,141-43.56E,174,14.742,33.8412,,,,,
742,2018/11/23,12:21,41-32.81N,141-43.59E,175,14.771,33.8408,,,,,
743,2018/11/23,12:22,41-32.49N,141-43.63E,175,14.796,33.8393,,,,,
744,2018/11/23,12:23,41-32.17N,141-43.66E,174,14.799,33.8383,,,,,
745,2018/11/23,12:24,41-31.86N,141-43.71E,173,14.803,33.8376,,,,,
746,2018/11/23,12:25,41-31.54N,141-43.74E,175,14.824,33.8368,,,,,
747,2018/11/23,12:26,41-31.22N,141-43.77E,176,14.831,33.8366,,,,,
748,2018/11/23,12:27,41-30.91N,141-43.79E,175,14.828,33.8364,,,,,
749,2018/11/23,12:28,41-30.58N,141-43.83E,174,14.831,33.8364,,,,,
750,2018/11/23,12:29,41-30.27N,141-43.87E,175,14.825,33.8367,,,,,
751,2018/11/23,12:30,41-29.95N,141-43.90E,175,14.843,33.8375,,,,,
752,2018/11/23,12:31,41-29.63N,141-43.93E,174,14.828,33.8371,,,,,
753,2018/11/23,12:32,41-29.31N,141-43.96E,174,14.836,33.8376,,,,,
754,2018/11/23,12:33,41-28.99N,141-44.01E,174,14.834,33.8381,,,,,
755,2018/11/23,12:34,41-28.68N,141-44.04E,175,14.825,33.8382,,,,,
756,2018/11/23,12:35,41-28.36N,141-44.08E,174,14.826,33.8393,,,,,
757,2018/11/23,12:36,41-28.04N,141-44.12E,175,14.828,33.8403,,,,,
758,2018/11/23,12:37,41-27.71N,141-44.15E,174,14.842,33.8412,,,,,
759,2018/11/23,12:38,41-27.39N,141-44.18E,176,14.85,33.8421,,,,,
760,2018/11/23,12:39,41-27.07N,141-44.21E,176,14.856,33.8429,,,,,
761,2018/11/23,12:40,41-26.75N,141-44.24E,175,14.86,33.8433,,,,,
762,2018/11/23,12:41,41-26.43N,141-44.27E,176,14.879,33.8433,,,,,
763,2018/11/23,12:42,41-26.10N,141-44.29E,175,14.88,33.8428,,,,,
764,2018/11/23,12:43,41-25.79N,141-44.32E,176,14.86,33.8432,,,,,
765,2018/11/23,12:44,41-25.46N,141-44.34E,177,14.644,33.8438,,,,,
766,2018/11/23,12:45,41-25.15N,141-44.36E,176,14.57,33.8446,,,,,
767,2018/11/23,12:46,41-24.82N,141-44.39E,175,14.553,33.843,,,,,
768,2018/11/23,12:47,41-24.51N,141-44.43E,175,14.562,33.8436,,,,,
769,2018/11/23,12:48,41-24.19N,141-44.46E,175,14.57,33.8437,,,,,
770,2018/11/23,12:49,41-23.88N,141-44.49E,176,14.541,33.8439,,,,,
771,2018/11/23,12:50,41-23.55N,141-44.52E,174,14.547,33.8434,,,,,
772,2018/11/23,12:51,41-23.25N,141-44.59E,170,15.194,33.8417,,,,,
773,2018/11/23,12:52,41-22.93N,141-44.65E,172,15.413,33.829,,,,,
774,2018/11/23,12:53,41-22.63N,141-44.70E,174,15.504,33.7723,,,,,
775,2018/11/23,12:54,41-22.32N,141-44.74E,174,15.503,33.7607,,,,,
776,2018/11/23,12:55,41-22.02N,141-44.79E,173,15.538,33.7583,,,,,
777,2018/11/23,12:56,41-21.71N,141-44.83E,172,15.507,33.7576,,,,,
778,2018/11/23,12:57,41-21.40N,141-44.88E,173,15.501,33.7577,,,,,
779,2018/11/23,12:58,41-21.10N,141-44.93E,174,15.486,33.7553,,,,,
780,2018/11/23,12:59,41-20.80N,141-44.97E,172,15.463,33.7528,,,,,
781,2018/11/23,13:00,41-20.50N,141-45.02E,172,15.486,33.7519,,,,,
782,2018/11/23,13:01,41-20.20N,141-45.07E,173,15.536,33.7494,,,,,
783,2018/11/23,13:02,41-19.90N,141-45.12E,174,15.623,33.7478,,,,,
784,2018/11/23,13:03,41-19.61N,141-45.16E,173,15.684,33.749,,,,,
785,2018/11/23,13:04,41-19.31N,141-45.21E,173,15.695,33.754,,,,,
786,2018/11/23,13:05,41-19.02N,141-45.25E,173,15.701,33.759,,,,,
787,2018/11/23,13:06,41-18.72N,141-45.29E,173,15.684,33.7616,,,,,
788,2018/11/23,13:07,41-18.43N,141-45.34E,173,15.718,33.7635,,,,,
789,2018/11/23,13:08,41-18.13N,141-45.38E,173,15.815,33.769,,,,,
790,2018/11/23,13:09,41-17.85N,141-45.43E,172,15.864,33.7797,,,,,
791,2018/11/23,13:10,41-17.56N,141-45.47E,174,15.883,33.785,,,,,
792,2018/11/23,13:11,41-17.27N,141-45.49E,176,15.891,33.7862,,,,,
793,2018/11/23,13:12,41-16.97N,141-45.51E,178,15.896,33.7867,,,,,
794,2018/11/23,13:13,41-16.69N,141-45.51E,179,15.917,33.7864,,,,,
795,2018/11/23,13:14,41-16.39N,141-45.52E,178,15.918,33.7862,,,,,
796,2018/11/23,13:15,41-16.11N,141-45.53E,179,15.916,33.7858,,,,,
797,2018/11/23,13:16,41-15.82N,141-45.54E,178,15.925,33.7829,,,,,
798,2018/11/23,13:17,41-15.53N,141-45.55E,178,15.913,33.7794,,,,,
799,2018/11/23,13:18,41-15.24N,141-45.56E,177,15.922,33.7751,,,,,
800,2018/11/23,13:19,41-14.96N,141-45.57E,178,15.919,33.7722,,,,,
801,2018/11/23,13:20,41-14.67N,141-45.58E,178,15.925,33.7686,,,,,
802,2018/11/23,13:21,41-14.38N,141-45.59E,179,15.938,33.7671,,,,,
803,2018/11/23,13:22,41-14.10N,141-45.59E,179,15.935,33.766,,,,,
804,2018/11/23,13:23,41-13.81N,141-45.60E,179,15.938,33.7645,,,,,
805,2018/11/23,13:24,41-13.52N,141-45.60E,179,15.941,33.7638,,,,,
806,2018/11/23,13:25,41-13.23N,141-45.60E,179,15.941,33.7637,,,,,
807,2018/11/23,13:26,41-12.95N,141-45.61E,179,15.942,33.7631,,,,,
808,2018/11/23,13:27,41-12.66N,141-45.61E,179,15.955,33.7604,,,,,
809,2018/11/23,13:28,41-12.36N,141-45.62E,178,15.945,33.7592,,,,,
810,2018/11/23,13:29,41-12.07N,141-45.62E,179,15.944,33.7589,,,,,
811,2018/11/23,13:30,41-11.78N,141-45.62E,180,15.956,33.7597,,,,,
812,2018/11/23,13:31,41-11.49N,141-45.62E,180,15.952,33.7591,,,,,
813,2018/11/23,13:32,41-11.20N,141-45.62E,180,15.948,33.759,,,,,
814,2018/11/23,13:33,41-10.90N,141-45.62E,180,15.945,33.7594,,,,,
815,2018/11/23,13:34,41-10.61N,141-45.62E,179,15.955,33.7593,,,,,
816,2018/11/23,13:35,41-10.32N,141-45.62E,179,15.941,33.7587,,,,,
817,2018/11/23,13:36,41-10.03N,141-45.61E,180,15.959,33.7587,,,,,
818,2018/11/23,13:37,41-09.74N,141-45.60E,181,15.961,33.7584,,,,,
819,2018/11/23,13:38,41-09.45N,141-45.60E,179,15.953,33.7585,,,,,
820,2018/11/23,13:39,41-09.15N,141-45.60E,181,15.958,33.7595,,,,,
821,2018/11/23,13:40,41-08.87N,141-45.59E,181,15.955,33.759,,,,,
822,2018/11/23,13:41,41-08.57N,141-45.57E,181,15.957,33.7597,,,,,
823,2018/11/23,13:42,41-08.29N,141-45.56E,181,15.966,33.7599,,,,,
824,2018/11/23,13:43,41-07.99N,141-45.55E,181,15.957,33.7601,,,,,
825,2018/11/23,13:44,41-07.71N,141-45.55E,180,15.968,33.7604,,,,,
826,2018/11/23,13:45,41-07.42N,141-45.54E,181,15.964,33.7605,,,,,
827,2018/11/23,13:46,41-07.13N,141-45.53E,181,15.961,33.7604,,,,,
828,2018/11/23,13:47,41-06.83N,141-45.51E,182,15.967,33.7612,,,,,
829,2018/11/23,13:48,41-06.55N,141-45.49E,182,15.956,33.7615,,,,,
830,2018/11/23,13:49,41-06.25N,141-45.48E,182,15.976,33.7616,,,,,
831,2018/11/23,13:50,41-05.97N,141-45.46E,181,15.976,33.7613,,,,,
832,2018/11/23,13:51,41-05.67N,141-45.45E,181,15.981,33.7612,,,,,
833,2018/11/23,13:52,41-05.38N,141-45.43E,182,15.98,33.7614,,,,,
834,2018/11/23,13:53,41-05.09N,141-45.41E,182,15.983,33.7617,,,,,
835,2018/11/23,13:54,41-04.80N,141-45.39E,183,15.975,33.7614,,,,,
836,2018/11/23,13:55,41-04.50N,141-45.37E,183,15.98,33.761,,,,,
837,2018/11/23,13:56,41-04.22N,141-45.35E,182,15.979,33.7623,,,,,
838,2018/11/23,13:57,41-03.93N,141-45.33E,183,15.973,33.7621,,,,,
839,2018/11/23,13:58,41-03.64N,141-45.30E,183,15.974,33.7619,,,,,
840,2018/11/23,13:59,41-03.35N,141-45.28E,183,15.972,33.7623,,,,,
841,2018/11/23,14:00,41-03.06N,141-45.26E,183,15.971,33.7625,,,,,
842,2018/11/23,14:01,41-02.76N,141-45.24E,182,15.966,33.7628,,,,,
843,2018/11/23,14:02,41-02.47N,141-45.23E,181,15.958,33.7629,,,,,
844,2018/11/23,14:03,41-02.18N,141-45.22E,180,15.952,33.7631,,,,,
845,2018/11/23,14:04,41-01.89N,141-45.21E,180,15.938,33.7638,,,,,
846,2018/11/23,14:05,41-01.60N,141-45.21E,180,15.938,33.7645,,,,,
847,2018/11/23,14:06,41-01.31N,141-45.22E,179,15.932,33.7646,,,,,
848,2018/11/23,14:07,41-01.01N,141-45.21E,180,15.924,33.7653,,,,,
849,2018/11/23,14:08,41-00.72N,141-45.21E,180,15.927,33.7666,,,,,
850,2018/11/23,14:09,41-00.42N,141-45.21E,179,15.909,33.7666,,,,,
851,2018/11/23,14:10,41-00.13N,141-45.21E,179,15.905,33.7673,,,,,
852,2018/11/23,14:11,40-59.83N,141-45.22E,179,15.897,33.7683,,,,,
853,2018/11/23,14:12,40-59.54N,141-45.22E,179,15.884,33.7693,,,,,
854,2018/11/23,14:13,40-59.25N,141-45.23E,177,15.873,33.77,,,,,
855,2018/11/23,14:14,40-58.96N,141-45.25E,176,15.864,33.7713,,,,,
856,2018/11/23,14:15,40-58.67N,141-45.27E,176,15.862,33.7716,,,,,
857,2018/11/23,14:16,40-58.37N,141-45.30E,175,15.851,33.7726,,,,,
858,2018/11/23,14:17,40-58.08N,141-45.33E,176,15.845,33.7735,,,,,
859,2018/11/23,14:18,40-57.79N,141-45.37E,173,15.839,33.7736,,,,,
860,2018/11/23,14:19,40-57.50N,141-45.42E,171,15.838,33.7741,,,,,
861,2018/11/23,14:20,40-57.21N,141-45.48E,171,15.83,33.7744,,,,,
862,2018/11/23,14:21,40-56.93N,141-45.54E,171,15.821,33.7745,,,,,
863,2018/11/23,14:22,40-56.64N,141-45.60E,171,15.812,33.775,,,,,
864,2018/11/23,14:23,40-56.35N,141-45.65E,171,15.808,33.7747,,,,,
865,2018/11/23,14:24,40-56.06N,141-45.70E,172,15.796,33.7748,,,,,
866,2018/11/23,14:25,40-55.77N,141-45.75E,172,15.784,33.7751,,,,,
867,2018/11/23,14:26,40-55.48N,141-45.80E,172,15.778,33.7753,,,,,
868,2018/11/23,14:27,40-55.19N,141-45.85E,172,15.762,33.7755,,,,,
869,2018/11/23,14:28,40-54.89N,141-45.90E,172,15.758,33.7763,,,,,
870,2018/11/23,14:29,40-54.61N,141-45.95E,172,15.739,33.7762,,,,,
871,2018/11/23,14:30,40-54.31N,141-46.00E,172,15.721,33.7766,,,,,
872,2018/11/23,14:31,40-54.02N,141-46.04E,173,15.707,33.7774,,,,,
873,2018/11/23,14:32,40-53.73N,141-46.08E,173,15.695,33.7781,,,,,